DOC33 ENBG-ENBG

Flight info

Callsign DOC33
Flight time 0h 31m
Altitude 2500
Route HEMS
Aircraft EC45/L-V/N

Departure

Time 2026-05-06 16:43
Airport Grønneviksøren (Haukeland Sykehus) Heliport (ENBG)

Arrival

Time 2026-05-06 17:14
Airport Grønneviksøren (Haukeland Sykehus) Heliport (ENBG)
Time Latitude Longitude Altitude Speed Heading
2026-05-06 16:34 60.37987 5.34609 13 ft 0 kts 55°
2026-05-06 16:42 60.37988 5.34608 16 ft 0 kts 57°
2026-05-06 16:42 60.38030 5.34675 61 ft 17 kts 40°
2026-05-06 16:42 60.38191 5.34673 196 ft 40 kts 328°
2026-05-06 16:42 60.38555 5.34347 347 ft 71 kts 330°
2026-05-06 16:43 60.39020 5.33803 532 ft 84 kts 326°
2026-05-06 16:43 60.39563 5.33188 642 ft 94 kts 333°
2026-05-06 16:43 60.40193 5.32659 715 ft 101 kts 335°
2026-05-06 16:43 60.40856 5.32091 754 ft 106 kts 333°
2026-05-06 16:44 60.41516 5.31387 748 ft 109 kts 327°
2026-05-06 16:44 60.42172 5.30564 731 ft 112 kts 320°
2026-05-06 16:44 60.42814 5.29562 684 ft 120 kts 321°
2026-05-06 16:44 60.43512 5.28652 696 ft 120 kts 331°
2026-05-06 16:45 60.44286 5.27966 667 ft 122 kts 335°
2026-05-06 16:45 60.45077 5.27293 604 ft 125 kts 335°
2026-05-06 16:45 60.45889 5.26632 525 ft 126 kts 336°
2026-05-06 16:45 60.46709 5.25975 435 ft 127 kts 337°
2026-05-06 16:46 60.47518 5.25301 430 ft 125 kts 335°
2026-05-06 16:46 60.48303 5.24586 454 ft 122 kts 332°
2026-05-06 16:46 60.49036 5.23767 506 ft 118 kts 327°
2026-05-06 16:46 60.49734 5.22898 598 ft 116 kts 326°
2026-05-06 16:47 60.50396 5.22036 738 ft 112 kts 325°
2026-05-06 16:47 60.51033 5.21179 909 ft 108 kts 324°
2026-05-06 16:47 60.51656 5.20339 1086 ft 106 kts 326°
2026-05-06 16:47 60.52277 5.19541 1233 ft 105 kts 327°
2026-05-06 16:48 60.52898 5.18782 1377 ft 104 kts 328°
2026-05-06 16:48 60.53528 5.18051 1533 ft 104 kts 329°
2026-05-06 16:48 60.54165 5.17354 1687 ft 104 kts 330°
2026-05-06 16:48 60.54818 5.16612 1754 ft 112 kts 328°
2026-05-06 16:49 60.55504 5.15772 1740 ft 119 kts 326°
2026-05-06 16:49 60.56206 5.14837 1698 ft 125 kts 324°
2026-05-06 16:49 60.56920 5.13826 1674 ft 125 kts 323°
2026-05-06 16:49 60.57621 5.12769 1660 ft 125 kts 322°
2026-05-06 16:50 60.58308 5.11673 1659 ft 125 kts 320°
2026-05-06 16:50 60.58988 5.10547 1652 ft 126 kts 320°
2026-05-06 16:50 60.59681 5.09423 1626 ft 128 kts 321°
2026-05-06 16:50 60.60147 5.08678 1601 ft 128 kts 321°
2026-05-06 16:51 60.61083 5.07202 1518 ft 130 kts 321°
2026-05-06 16:51 60.61800 5.06105 1413 ft 127 kts 321°
2026-05-06 16:51 60.62475 5.05000 1299 ft 122 kts 319°
2026-05-06 16:51 60.63141 5.03969 1191 ft 119 kts 325°
2026-05-06 16:52 60.63779 5.02987 1101 ft 109 kts 317°
2026-05-06 16:52 60.64302 5.02537 943 ft 72 kts 72°
2026-05-06 16:52 60.64322 5.03360 752 ft 50 kts 87°
2026-05-06 16:52 60.64323 5.03394 745 ft 50 kts 88°
2026-05-06 16:53 60.64328 5.03596 699 ft 46 kts 86°
2026-05-06 16:53 60.64315 5.04180 533 ft 38 kts 121°
2026-05-06 16:53 60.64242 5.04558 367 ft 15 kts 194°
2026-05-06 16:54 60.64181 5.04471 154 ft 13 kts 203°
2026-05-06 16:54 60.64117 5.04403 194 ft 7 kts 212°
2026-05-06 16:54 60.64096 5.04387 119 ft 1 kts 213°
2026-05-06 16:54 60.64093 5.04383 101 ft 0 kts 212°
2026-05-06 17:03 60.64092 5.04381 104 ft 1 kts 213°
2026-05-06 17:04 60.64093 5.04376 134 ft 2 kts 209°
2026-05-06 17:04 60.64015 5.04424 257 ft 29 kts 168°
2026-05-06 17:04 60.63726 5.04827 410 ft 71 kts 148°
2026-05-06 17:04 60.63225 5.05433 516 ft 94 kts 150°
2026-05-06 17:05 60.62629 5.06166 612 ft 105 kts 149°
2026-05-06 17:05 60.61978 5.06984 655 ft 113 kts 148°
2026-05-06 17:05 60.61299 5.07883 659 ft 119 kts 147°
2026-05-06 17:05 60.60604 5.08842 690 ft 121 kts 146°
2026-05-06 17:06 60.59915 5.09829 737 ft 121 kts 145°
2026-05-06 17:06 60.59277 5.10851 895 ft 110 kts 141°
2026-05-06 17:06 60.58717 5.11802 1124 ft 101 kts 142°
2026-05-06 17:06 60.58153 5.12611 1249 ft 103 kts 148°
2026-05-06 17:07 60.57519 5.13499 1268 ft 115 kts 147°
2026-05-06 17:07 60.56830 5.14390 1310 ft 120 kts 150°
2026-05-06 17:07 60.56097 5.15274 1311 ft 124 kts 150°
2026-05-06 17:07 60.55341 5.16172 1288 ft 127 kts 150°
2026-05-06 17:08 60.54577 5.17113 1252 ft 129 kts 149°
2026-05-06 17:08 60.53818 5.18086 1233 ft 129 kts 148°
2026-05-06 17:08 60.53067 5.19079 1217 ft 129 kts 147°
2026-05-06 17:08 60.52323 5.20085 1195 ft 128 kts 147°
2026-05-06 17:09 60.51582 5.21094 1182 ft 128 kts 147°
2026-05-06 17:09 60.50850 5.22088 1165 ft 128 kts 147°
2026-05-06 17:09 60.50103 5.23060 1163 ft 127 kts 149°
2026-05-06 17:09 60.49331 5.23907 1158 ft 126 kts 152°
2026-05-06 17:10 60.48562 5.24752 1153 ft 125 kts 151°
2026-05-06 17:10 60.47805 5.25608 1148 ft 124 kts 151°
2026-05-06 17:10 60.47036 5.26410 1148 ft 124 kts 155°
2026-05-06 17:10 60.46251 5.27123 1148 ft 123 kts 156°
2026-05-06 17:11 60.45462 5.27804 1149 ft 123 kts 159°
2026-05-06 17:11 60.44619 5.28204 1108 ft 125 kts 169°
2026-05-06 17:11 60.43754 5.28551 1066 ft 127 kts 168°
2026-05-06 17:11 60.42915 5.29109 1025 ft 128 kts 157°
2026-05-06 17:12 60.42075 5.29748 953 ft 130 kts 160°
2026-05-06 17:12 60.41224 5.30347 891 ft 128 kts 161°
2026-05-06 17:12 60.40433 5.31087 865 ft 124 kts 152°
2026-05-06 17:12 60.39715 5.31957 871 ft 116 kts 146°
2026-05-06 17:13 60.39116 5.32856 1003 ft 102 kts 143°
2026-05-06 17:13 60.38542 5.33710 1030 ft 102 kts 148°
2026-05-06 17:13 60.37924 5.34401 1061 ft 98 kts 155°
2026-05-06 17:13 60.37340 5.34949 1145 ft 89 kts 161°
2026-05-06 17:14 60.36730 5.34975 1083 ft 89 kts 168°
2026-05-06 17:14 60.36672 5.35906 926 ft 85 kts 34°
2026-05-06 17:14 60.37147 5.35918 843 ft 30 kts
2026-05-06 17:14 60.37274 5.35821 489 ft 15 kts
2026-05-06 17:15 60.37294 5.35754 247 ft 12 kts
2026-05-06 17:15 60.37259 5.35741 272 ft 12 kts
2026-05-06 17:15 60.37283 5.35845 314 ft 7 kts 355°
2026-05-06 17:16 60.37310 5.35838 266 ft 0 kts 349°
2026-05-06 17:16 60.37311 5.35838 261 ft 0 kts 349°
2026-05-06 17:23 60.37312 5.35833 280 ft 3 kts 201°
2026-05-06 17:23 60.37276 5.35787 403 ft 9 kts 204°
2026-05-06 17:23 60.37175 5.35651 684 ft 32 kts 204°
2026-05-06 17:24 60.36877 5.35296 954 ft 66 kts 206°
2026-05-06 17:24 60.36311 5.34967 896 ft 107 kts 188°
2026-05-06 17:24 60.35586 5.34827 959 ft 108 kts 180°
2026-05-06 17:24 60.34791 5.34905 942 ft 118 kts 173°
2026-05-06 17:25 60.33978 5.35246 959 ft 120 kts 164°
2026-05-06 17:25 60.33190 5.35815 993 ft 121 kts 156°
2026-05-06 17:25 60.32435 5.36541 1037 ft 120 kts 154°
2026-05-06 17:25 60.31665 5.37173 1083 ft 119 kts 164°
2026-05-06 17:26 60.30855 5.37465 1141 ft 118 kts 174°
2026-05-06 17:26 60.30036 5.37540 1209 ft 117 kts 179°
2026-05-06 17:26 60.29227 5.37550 1279 ft 116 kts 180°
2026-05-06 17:26 60.28406 5.37528 1342 ft 117 kts 181°
2026-05-06 17:27 60.27605 5.37489 1484 ft 109 kts 181°
2026-05-06 17:27 60.26910 5.37559 1728 ft 97 kts 174°
2026-05-06 17:27 60.26214 5.37715 1807 ft 105 kts 172°
2026-05-06 17:27 60.25484 5.37911 1935 ft 104 kts 172°
2026-05-06 17:28 60.24784 5.38103 2123 ft 99 kts 172°
2026-05-06 17:28 60.24123 5.38249 2370 ft 92 kts 185°
2026-05-06 17:28 60.23747 5.37313 2486 ft 101 kts 268°
2026-05-06 17:28 60.24187 5.36204 2501 ft 112 kts 333°
2026-05-06 17:29 60.24914 5.35567 2547 ft 116 kts 337°
2026-05-06 17:29 60.25687 5.35005 2588 ft 118 kts 340°
2026-05-06 17:29 60.26469 5.34477 2642 ft 119 kts 341°
2026-05-06 17:29 60.27268 5.33967 2662 ft 121 kts 342°
2026-05-06 17:30 60.28085 5.33469 2650 ft 125 kts 342°
2026-05-06 17:30 60.28935 5.32965 2578 ft 129 kts 341°
2026-05-06 17:30 60.29605 5.31830 2522 ft 129 kts 300°
2026-05-06 17:30 60.29846 5.30080 2476 ft 132 kts 278°
2026-05-06 17:31 60.29989 5.28259 2447 ft 132 kts 274°
2026-05-06 17:31 60.29888 5.26456 2468 ft 127 kts 256°
2026-05-06 17:31 60.29621 5.24797 2504 ft 122 kts 250°
2026-05-06 17:31 60.29344 5.23196 2548 ft 120 kts 250°
2026-05-06 17:32 60.29045 5.21584 2505 ft 124 kts 249°
2026-05-06 17:32 60.28742 5.19943 2482 ft 125 kts 249°
2026-05-06 17:32 60.28447 5.18298 2484 ft 124 kts 249°
2026-05-06 17:32 60.28154 5.16691 2498 ft 123 kts 246°
2026-05-06 17:33 60.27858 5.15053 2485 ft 126 kts 246°
2026-05-06 17:33 60.27561 5.13375 2459 ft 127 kts 249°
2026-05-06 17:33 60.27268 5.11698 2453 ft 126 kts 250°
2026-05-06 17:33 60.26979 5.10032 2453 ft 126 kts 250°
2026-05-06 17:34 60.26693 5.08375 2442 ft 125 kts 251°
2026-05-06 17:34 60.26414 5.06730 2459 ft 123 kts 251°
2026-05-06 17:34 60.26137 5.05104 2481 ft 122 kts 250°
2026-05-06 17:34 60.25851 5.03538 2534 ft 119 kts 249°
2026-05-06 17:35 60.25580 5.01945 2521 ft 122 kts 258°
2026-05-06 17:35 60.25469 5.00245 2459 ft 123 kts 262°
2026-05-06 17:35 60.25313 4.98550 2368 ft 120 kts 248°
2026-05-06 17:36 60.24271 4.96244 1992 ft 113 kts 268°
2026-05-06 17:36 60.24733 4.95319 1939 ft 96 kts 357°
2026-05-06 17:36 60.25249 4.95835 1805 ft 80 kts 46°
2026-05-06 17:36 60.25581 4.96615 1551 ft 66 kts 53°
2026-05-06 17:37 60.25902 4.97286 1268 ft 67 kts 41°
2026-05-06 17:37 60.26252 4.97887 1037 ft 66 kts 43°
2026-05-06 17:37 60.26453 4.98650 763 ft 56 kts 99°
2026-05-06 17:37 60.26286 4.98973 576 ft 34 kts 180°
2026-05-06 17:38 60.26024 4.98818 367 ft 37 kts 217°
2026-05-06 17:38 60.25935 4.98495 243 ft 23 kts 256°
2026-05-06 17:38 60.25938 4.98315 160 ft 17 kts 291°
2026-05-06 17:38 60.25972 4.98177 72 ft 6 kts 332°
2026-05-06 17:39 60.25981 4.98156 41 ft 0 kts 342°
2026-05-06 17:45 60.25998 4.98142 131 ft 13 kts 342°
2026-05-06 17:45 60.26264 4.98237 304 ft 71 kts 17°
2026-05-06 17:45 60.26692 4.99114 464 ft 96 kts 50°
2026-05-06 17:45 60.27078 5.00268 618 ft 102 kts 59°
2026-05-06 17:46 60.27390 5.01586 771 ft 106 kts 68°
2026-05-06 17:46 60.27629 5.03028 897 ft 111 kts 72°
2026-05-06 17:46 60.27837 5.04563 992 ft 115 kts 75°
2026-05-06 17:46 60.28059 5.06190 965 ft 125 kts 74°
2026-05-06 17:47 60.28043 5.07961 835 ft 133 kts 105°
2026-05-06 17:47 60.27810 5.09760 822 ft 129 kts 102°
2026-05-06 17:47 60.27727 5.11492 823 ft 125 kts 81°
2026-05-06 17:47 60.28123 5.12990 843 ft 121 kts 47°
2026-05-06 17:48 60.28703 5.14200 893 ft 119 kts 58°
2026-05-06 17:48 60.28993 5.15728 983 ft 114 kts 68°
2026-05-06 17:48 60.29285 5.17240 989 ft 119 kts 69°
2026-05-06 17:48 60.29547 5.18868 964 ft 125 kts 74°
2026-05-06 17:49 60.29743 5.20593 937 ft 126 kts 77°
2026-05-06 17:49 60.29906 5.22316 965 ft 124 kts 81°
2026-05-06 17:49 60.29970 5.24022 1051 ft 119 kts 89°
2026-05-06 17:49 60.30030 5.25702 1104 ft 121 kts 78°
2026-05-06 17:50 60.30393 5.27219 1143 ft 122 kts 50°
2026-05-06 17:50 60.30981 5.28466 1175 ft 123 kts 44°
2026-05-06 17:50 60.31612 5.29660 1174 ft 126 kts 41°
2026-05-06 17:50 60.32281 5.30848 1134 ft 130 kts 40°
2026-05-06 17:51 60.32980 5.32016 1079 ft 131 kts 37°
2026-05-06 17:51 60.33728 5.33045 1052 ft 129 kts 31°
2026-05-06 17:51 60.34514 5.33904 1033 ft 128 kts 26°
2026-05-06 17:51 60.35294 5.34617 951 ft 121 kts 22°
2026-05-06 17:52 60.36045 5.35197 848 ft 104 kts 19°
2026-05-06 17:52 60.36625 5.35568 721 ft 72 kts 17°
2026-05-06 17:52 60.37026 5.35770 515 ft 46 kts 11°
2026-05-06 17:52 60.37230 5.35828 353 ft 17 kts 360°
2026-05-06 17:53 60.37300 5.35840 275 ft 4 kts 349°
2026-05-06 17:53 60.37310 5.35838 261 ft 1 kts 349°
2026-05-06 17:53 60.37311 5.35838 261 ft 0 kts 349°
2026-05-06 17:56 60.37341 5.35802 289 ft 23 kts 330°
2026-05-06 17:57 60.37642 5.35440 324 ft 75 kts 336°
2026-05-06 17:57 60.38153 5.35018 219 ft 66 kts 293°
2026-05-06 17:57 60.38028 5.34581 85 ft 22 kts 140°
2026-05-06 17:57 60.37984 5.34587 25 ft 3 kts 74°
2026-05-06 17:58 60.37986 5.34602 15 ft 0 kts 72°
2026-05-06 17:58 60.37986 5.34603 13 ft 0 kts 72°